Time,TemperatureF,DewpointF,PressureIn,WindDirection,WindDirectionDegrees,WindSpeedMPH,WindSpeedGustMPH,Humidity,HourlyPrecipIn,Conditions,Clouds,dailyrainin,SoftwareType,DateUTC
2013-06-01 00:02:00,64.8,45.1,30.49,SE,130,0.0,6.0,49,0.00,,,0.00,meteohub,2013-06-01 07:02:00,
2013-06-01 00:22:00,64.9,45.3,30.49,South,179,0.0,6.0,49,0.00,,,0.00,meteohub,2013-06-01 07:22:00,
2013-06-01 00:42:00,65.1,45.5,30.49,SE,124,2.0,3.0,49,0.00,,,0.00,meteohub,2013-06-01 07:42:00,
2013-06-01 01:02:00,65.1,45.0,30.49,South,175,3.0,6.0,48,0.00,,,0.00,meteohub,2013-06-01 08:02:00,
2013-06-01 01:22:00,65.3,45.1,30.46,SE,137,5.0,6.0,48,0.00,,,0.00,meteohub,2013-06-01 08:22:00,
2013-06-01 01:42:00,65.3,44.6,30.46,SE,142,5.0,5.0,47,0.00,,,0.00,meteohub,2013-06-01 08:42:00,
2013-06-01 02:02:00,65.1,44.4,30.46,ESE,123,0.0,0.0,47,0.00,,,0.00,meteohub,2013-06-01 09:02:00,
2013-06-01 02:22:00,64.9,43.7,30.46,South,180,0.0,0.0,46,0.00,,,0.00,meteohub,2013-06-01 09:22:00,
2013-06-01 02:42:00,64.9,43.7,30.46,South,173,0.0,0.0,46,0.00,,,0.00,meteohub,2013-06-01 09:42:00,
2013-06-01 03:02:00,64.9,43.7,30.46,South,186,0.0,0.0,46,0.00,,,0.00,meteohub,2013-06-01 10:02:00,
2013-06-01 03:22:00,64.9,43.7,30.46,SSE,162,0.0,0.0,46,0.00,,,0.00,meteohub,2013-06-01 10:22:00,
2013-06-01 03:42:00,64.9,43.7,30.46,SSE,156,0.0,0.0,46,0.00,,,0.00,meteohub,2013-06-01 10:42:00,
2013-06-01 04:02:00,64.9,43.7,30.46,SSE,155,0.0,0.0,46,0.00,,,0.00,meteohub,2013-06-01 11:02:00,
2013-06-01 04:22:00,64.8,43.5,30.46,South,183,0.0,0.0,46,0.00,,,0.00,meteohub,2013-06-01 11:22:00,
2013-06-01 04:42:00,64.6,43.3,30.46,SSE,160,0.0,0.0,46,0.00,,,0.00,meteohub,2013-06-01 11:42:00,
2013-06-01 05:02:00,64.4,43.2,30.46,SW,218,0.0,0.0,46,0.00,,,0.00,meteohub,2013-06-01 12:02:00,
2013-06-01 05:22:00,64.4,43.2,30.46,South,187,0.0,0.0,46,0.00,,,0.00,meteohub,2013-06-01 12:22:00,
2013-06-01 05:42:00,64.2,43.5,30.46,SE,125,0.0,0.0,47,0.00,,,0.00,meteohub,2013-06-01 12:42:00,
2013-06-01 06:02:00,64.4,43.7,30.46,SE,131,0.0,0.0,47,0.00,,,0.00,meteohub,2013-06-01 13:02:00,
2013-06-01 06:22:00,64.6,43.9,30.46,East,89,0.0,0.0,47,0.00,,,0.00,meteohub,2013-06-01 13:22:00,
2013-06-01 06:42:00,64.6,43.3,30.46,SSE,150,0.0,0.0,46,0.00,,,0.00,meteohub,2013-06-01 13:42:00,
2013-06-01 07:02:00,65.1,43.9,30.46,ENE,76,0.0,0.0,46,0.00,,,0.00,meteohub,2013-06-01 14:02:00,
2013-06-01 07:22:00,65.5,44.2,30.46,SE,136,0.0,0.0,46,0.00,,,0.00,meteohub,2013-06-01 14:22:00,
2013-06-01 07:42:00,65.5,43.0,30.46,SSW,194,0.0,0.0,44,0.00,,,0.00,meteohub,2013-06-01 14:42:00,
2013-06-01 08:02:00,65.7,43.2,30.46,NW,310,0.0,0.0,44,0.00,,,0.00,meteohub,2013-06-01 15:02:00,
2013-06-01 08:22:00,66.0,43.5,30.46,NW,311,0.0,0.0,44,0.00,,,0.00,meteohub,2013-06-01 15:22:00,
2013-06-01 08:42:00,66.9,43.2,30.46,North,357,0.0,6.0,42,0.00,,,0.00,meteohub,2013-06-01 15:42:00,
2013-06-01 09:02:00,67.8,43.3,30.46,West,278,0.0,4.0,41,0.00,,,0.00,meteohub,2013-06-01 16:02:00,
2013-06-01 09:22:00,70.2,41.9,30.46,West,274,3.0,4.0,36,0.00,,,0.00,meteohub,2013-06-01 16:22:00,
2013-06-01 09:42:00,70.0,40.3,30.43,WSW,249,4.0,6.0,34,0.00,,,0.00,meteohub,2013-06-01 16:42:00,
2013-06-01 10:02:00,69.6,41.5,30.46,West,262,4.0,8.0,36,0.00,,,0.00,meteohub,2013-06-01 17:02:00,
2013-06-01 10:22:00,70.2,41.2,30.46,SW,218,6.0,8.0,35,0.00,,,0.00,meteohub,2013-06-01 17:22:00,
2013-06-01 10:42:00,69.8,41.0,30.46,WSW,243,5.0,9.0,35,0.00,,,0.00,meteohub,2013-06-01 17:42:00,
2013-06-01 11:02:00,70.2,41.2,30.46,SW,232,7.0,11.0,35,0.00,,,0.00,meteohub,2013-06-01 18:02:00,
2013-06-01 11:22:00,69.6,41.5,30.46,SW,228,8.0,11.0,36,0.00,,,0.00,meteohub,2013-06-01 18:22:00,
2013-06-01 11:42:00,70.0,41.0,30.46,WSW,240,8.0,10.0,35,0.00,,,0.00,meteohub,2013-06-01 18:42:00,
2013-06-01 12:02:00,70.9,41.2,30.46,WSW,250,9.0,12.0,34,0.00,,,0.00,meteohub,2013-06-01 19:02:00,
2013-06-01 12:22:00,71.2,41.4,30.43,WSW,256,9.0,13.0,34,0.00,,,0.00,meteohub,2013-06-01 19:22:00,
2013-06-01 12:42:00,70.9,41.9,30.43,West,259,5.0,11.0,35,0.00,,,0.00,meteohub,2013-06-01 19:42:00,
2013-06-01 13:02:00,70.9,41.9,30.43,WSW,253,8.0,11.0,35,0.00,,,0.00,meteohub,2013-06-01 20:02:00,
2013-06-01 13:22:00,71.8,41.9,30.43,SSW,210,8.0,11.0,34,0.00,,,0.00,meteohub,2013-06-01 20:22:00,
2013-06-01 13:42:00,72.1,42.3,30.43,WSW,239,11.0,11.0,34,0.00,,,0.00,meteohub,2013-06-01 20:42:00,
2013-06-01 14:02:00,72.0,42.8,30.43,SW,232,13.0,15.0,35,0.00,,,0.00,meteohub,2013-06-01 21:02:00,
2013-06-01 14:22:00,72.0,42.8,30.43,WSW,237,11.0,17.0,35,0.00,,,0.00,meteohub,2013-06-01 21:22:00,
2013-06-01 14:42:00,71.8,42.6,30.43,West,267,5.0,15.0,35,0.00,,,0.00,meteohub,2013-06-01 21:42:00,
2013-06-01 15:02:00,72.5,42.6,30.40,SW,229,11.0,13.0,34,0.00,,,0.00,meteohub,2013-06-01 22:02:00,
2013-06-01 15:22:00,71.8,42.6,30.40,SW,231,8.0,15.0,35,0.00,,,0.00,meteohub,2013-06-01 22:22:00,
2013-06-01 15:42:00,70.3,42.8,30.40,WSW,246,6.0,15.0,37,0.00,,,0.00,meteohub,2013-06-01 22:42:00,
2013-06-01 16:02:00,69.6,43.5,30.40,WSW,254,5.0,13.0,39,0.00,,,0.00,meteohub,2013-06-01 23:02:00,
2013-06-01 16:22:00,69.4,44.8,30.40,SW,223,6.0,12.0,41,0.00,,,0.00,meteohub,2013-06-01 23:22:00,
2013-06-01 16:42:00,68.4,44.4,30.40,SW,236,11.0,11.0,42,0.00,,,0.00,meteohub,2013-06-01 23:42:00,
2013-06-01 17:02:00,67.6,44.4,30.40,SW,220,5.0,13.0,43,0.00,,,0.00,meteohub,2013-06-02 00:02:00,
2013-06-01 17:22:00,67.1,43.9,30.40,SW,221,11.0,11.0,43,0.00,,,0.00,meteohub,2013-06-02 00:22:00,
2013-06-01 17:42:00,66.9,44.2,30.40,SW,220,8.0,10.0,44,0.00,,,0.00,meteohub,2013-06-02 00:42:00,
2013-06-01 18:02:00,67.5,44.2,30.40,SSW,206,4.0,10.0,43,0.00,,,0.00,meteohub,2013-06-02 01:02:00,
2013-06-01 18:22:00,66.6,44.1,30.40,South,187,6.0,11.0,44,0.00,,,0.00,meteohub,2013-06-02 01:22:00,
2013-06-01 18:42:00,66.4,45.0,30.40,SSE,162,8.0,9.0,46,0.00,,,0.00,meteohub,2013-06-02 01:42:00,
2013-06-01 19:02:00,66.0,45.1,30.40,SW,219,0.0,8.0,47,0.00,,,0.00,meteohub,2013-06-02 02:02:00,
2013-06-01 19:22:00,66.0,44.6,30.43,SW,222,4.0,9.0,46,0.00,,,0.00,meteohub,2013-06-02 02:22:00,
2013-06-01 19:42:00,65.7,45.0,30.43,SSW,210,5.0,10.0,47,0.00,,,0.00,meteohub,2013-06-02 02:42:00,
2013-06-01 20:02:00,64.9,43.7,30.43,SW,223,6.0,10.0,46,0.00,,,0.00,meteohub,2013-06-02 03:02:00,
2013-06-01 20:22:00,64.4,43.7,30.43,SW,226,7.0,11.0,47,0.00,,,0.00,meteohub,2013-06-02 03:22:00,
2013-06-01 20:42:00,64.6,44.4,30.43,South,175,5.0,9.0,48,0.00,,,0.00,meteohub,2013-06-02 03:42:00,
2013-06-01 21:02:00,64.9,44.8,30.43,SSE,165,4.0,8.0,48,0.00,,,0.00,meteohub,2013-06-02 04:02:00,
2013-06-01 21:22:00,64.8,44.1,30.46,SSW,197,6.0,7.0,47,0.00,,,0.00,meteohub,2013-06-02 04:22:00,
2013-06-01 21:42:00,64.9,44.8,30.46,South,176,2.0,8.0,48,0.00,,,0.00,meteohub,2013-06-02 04:42:00,
2013-06-01 22:02:00,64.8,44.1,30.46,SSW,206,5.0,8.0,47,0.00,,,0.00,meteohub,2013-06-02 05:02:00,
2013-06-01 22:22:00,64.9,44.2,30.46,SSW,206,4.0,8.0,47,0.00,,,0.00,meteohub,2013-06-02 05:22:00,
2013-06-01 22:42:00,64.9,43.7,30.46,South,181,8.0,8.0,46,0.00,,,0.00,meteohub,2013-06-02 05:42:00,
2013-06-01 23:02:00,65.1,43.9,30.46,SSE,165,0.0,6.0,46,0.00,,,0.00,meteohub,2013-06-02 06:02:00,
2013-06-01 23:22:00,64.9,43.7,30.46,South,173,0.0,0.0,46,0.00,,,0.00,meteohub,2013-06-02 06:22:00,
2013-06-01 23:42:00,65.1,43.9,30.46,South,178,0.0,0.0,46,0.00,,,0.00,meteohub,2013-06-02 06:42:00,